Regional Weather Roundup
Issued by NWS

Home | Current Version | Previous Version | Graphics & Text | Print | Product List | Glossary Off
Versions: 1 2 3 4 5 6 7 8 9 10 11 12 13 14 15 16 17 18 19 20 21 22 23 24 25 26 27 28 29 30 31 32 33 34 35 36 37 38 39 40 41 42 43 44 45 46 47 48 49 50

000
ASUS43 KMKX 020721
RWRWI

WISCONSIN REGIONAL WEATHER ROUNDUP
NATIONAL WEATHER SERVICE MILWAUKEE/SULLIVAN WI
200 AM CDT THU JUL 02 2015

NOTE: "FAIR" INDICATES FEW OR NO CLOUDS BELOW 12,000 FEET WITH NO
SIGNIFICANT WEATHER AND/OR OBSTRUCTIONS TO VISIBILITY.

WIZ001-002-006>008-014>016-023>028-020800-
NORTHWEST WISCONSIN

CITY           SKY/WX    TMP DP  RH WIND       PRES   REMARKS
SUPERIOR ARPT  CLEAR     50  49  99 CALM      30.01S
ASHLAND        CLEAR     49  49 100 CALM      30.02S
HAYWARD        CLEAR     51  49  92 CALM      30.02F
SIREN          NOT AVBL
CUMBERLAND     NOT AVBL
RICE LAKE      CLEAR     54  53  95 CALM      30.03S FOG
CHETEK         NOT AVBL
LADYSMITH      NOT AVBL
EAU CLAIRE     CLEAR     53  50  89 CALM      29.99S
MENOMONIE      NOT AVBL
NEW RICHMOND   CLEAR     55  55  99 CALM      30.02
OSCEOLA        NOT AVBL
$$

WIZ003>005-009-010-017-018-020800-
NORTH CENTRAL WISCONSIN

CITY           SKY/WX    TMP DP  RH WIND       PRES   REMARKS
MANITOWISH WTR NOT AVBL
ARBOR VITAE    CLEAR     49  47  92 CALM      30.04F
WOODRUFF       CLEAR     49  47  92 CALM      30.04F
RHINELANDER    CLEAR     50  45  83 SE3       30.05F
EAGLE RIVER    NOT AVBL
LAND O LAKES   CLEAR     43  43 100 CALM      30.05F FOG
PHILLIPS       NOT AVBL
TOMAHAWK       NOT AVBL
MEDFORD        NOT AVBL
MERRILL        NOT AVBL
$$

WIZ029-030-035-036-043>047-020800-
CENTRAL WISCONSIN

CITY           SKY/WX    TMP DP  RH WIND       PRES   REMARKS
WAUSAU         CLEAR     53  48  83 E7        30.02S
MOSINEE        NOT AVBL
MARSHFIELD     CLEAR     55  48  77 E8        30.01S
STEVENS POINT  CLEAR     50  49  96 CALM      30.03
WAUPACA        NOT AVBL
WAUTOMA        CLEAR     50  50 100 CALM      30.04R
WISC RAPIDS    CLEAR     52  48  86 E8        30.02S
CAMP DOUGLAS   CLEAR     45  45 100 CALM      30.00S FOG
$$

WIZ011>013-019>022-031-037>040-048>050-020800-
NORTHEAST WISCONSIN

CITY           SKY/WX    TMP DP  RH WIND       PRES   REMARKS
ANTIGO         CLEAR     48  46  93 CALM      30.05S
SHAWANO        NOT AVBL
OCONTO         NOT AVBL
STURGEON BAY   CLEAR     48  43  81 CALM      30.07R
GREEN BAY      CLEAR     50  48  93 CALM      30.04S
MANITOWOC      CLEAR     47  47 100 MISG      30.04S
APPLETON       NOT AVBL
CLINTONVILLE   NOT AVBL
OSHKOSH        CLEAR     56  46  69 SE5       30.03S
$$

WIZ032>034-041-042-053>061-020800-
SOUTHWEST WISCONSIN

CITY           SKY/WX    TMP DP  RH WIND       PRES   REMARKS
LA CROSSE      CLEAR     55  53  93 CALM      29.99S
SPARTA         NOT AVBL
VIROQUA        NOT AVBL
BOSCOBEL       FOG       51  50  96 CALM      30.01R VSB 1/4
PRAIRIE DU CHI NOT AVBL
PLATTEVILLE    NOT AVBL
$$

WIZ056-057-062-063-064-067-068-020800-
SOUTH CENTRAL WISCONSIN

CITY           SKY/WX    TMP DP  RH WIND       PRES   REMARKS
REEDSBURG      NOT AVBL
BARABOO/DELLS  NOT AVBL
LONE ROCK      PTCLDY    49  48  97 E3        30.01S
MINERAL POINT  NOT AVBL
MADISON        CLEAR     52  50  93 CALM      30.02R FOG
MIDDLETON      NOT AVBL
WATERTOWN      NOT AVBL
MONROE         NOT AVBL
JANESVILLE     NOT AVBL
$$

WIZ051-052-058>065-066-070>072-020800-
SOUTHEAST WISCONSIN

CITY           SKY/WX    TMP DP  RH WIND       PRES   REMARKS
MILWAUKEE      CLEAR     52  47  83 N8        30.01F
WAUKESHA       NOT AVBL
MILWAUKEE/TIMM NOT AVBL
RACINE         CLEAR     54  47  77 NE10      30.02S
BURLINGTON     NOT AVBL
KENOSHA        CLEAR     50  47  89 N5        30.01S
FOND DU LAC    CLEAR     50  48  93 CALM      30.03S
SHEBOYGAN      CLEAR     47  46  97 CALM      30.03S
WEST BEND      NOT AVBL
JUNEAU         NOT AVBL
$$

LSZ147-162-020800-
LAKE SUPERIOR

STATION/POSITION TIME  TEMP    WIND        PRES    WAVE
                       AIR SEA DIR/SP/G            HT/PER
                 (UTC) (F)     (DEG/KT/KT) (MB)    (FT/S)
W MID LAKE BUOY  0650   48 38  190/  8/  8 1016.4F   0
DEVILS ISLAND    0700   59      20/  3/  4 1016.4R
SAXON HARBOR     0600   54     190/  5/  7 1015.9
$$

LMZ867-665-643>646-020800-
LAKE MICHIGAN

STATION/POSITION TIME  TEMP    WIND        PRES    WAVE
                       AIR SEA DIR/SP/G            HT/PER
                 (UTC) (F)     (DEG/KT/KT) (MB)    (FT/S)
CHAMBERS ISLAND  0600   60      50/  4/  8 1017.3F
S GREEN BAY BUOY 0600   60 68   90/  6/ 10 1018.6
N MID LAKE BUOY  0650   49 42  320/  4/  4 1017.5R   1
NORTHPORT PIER   0500   52      CALM  /  2 1017.3R
SISTER BAY       0614   53     130/  3/  5   N/A
ALGOMA LAKESHORE 0510             CALM       N/A
KEWAUNEE LAKESHO 0700   48     300/  2/  3 1016.5S
SHEBOYGAN LAKESH 0600   55     330/  7/  7 1017.3R
PORT WASHINGTON  0640   54     320/  4/  6 1017.3S
ATWATER BUOY     0700   57      10/ 10/ 12 1017.5F
MILWAUKEE LAKESH 0700   55     350/  5/  7   N/A
KENOSHA   LAKESH 0600   57     360/  8/ 12 1015.9S
$$

TC  - TEMPERATURE IN CELSIUS
VSB - VISIBILITY IN STATUTE MILES
WCI - WIND CHILL INDEX
HX  - HEAT INDEX




USA.gov is the U.S. government's official web portal to all federal, state and local government web resources and services.